Find Starlink 37214

NORAD ID: 68345 Int'l Des: 2026-059 Owner: SPXS Country: US Constellation: starlink operational
LEOCIRCULAR

現在のビュー

3D地球を読み込み中...

About Starlink 37214

Starlink 37214 (NORAD 68345) is a starlink constellation satellite (v2 mini) launched Mar 22, 2026 by SPXS of US. It operates in LEO, CIRCULAR orbit with a mass of 575.00 kg.

Starlink 37214について

説明を読み込み中...

次回通過

Passes for default location (London). Set your location on the main map for personalized predictions.

高度履歴

Loading altitude history...

軌道要素

1 68345U 26059AA 26171.39125227 .00013926 00000-0 42247-3 0 9999
2 68345 53.1590 225.9561 0001217 90.6598 269.4544 15.34403645 13978
Epoch: Jun 20, 2026 • Age: 33 hours

現在のステータス

高度 467.2 km
速度 7.64 km/s
衛星直下点 47.79°N, 87.12°E
打ち上げ日 Mar 22, 2026
運用期間 0.2 years
タイプ internet

技術仕様

分類 Payload
質量 575.00 kg
乾燥質量 530.00 kg
総質量 575.00 kg
長さ 0.30 m
直径 4.10 m
スパン 29.00 m
形状 Box + pan
製造者 SPXS
バスタイプ Starlink V2MO
フェーズステータス In Orbit
所有者/国 SPXS/US

Most Searched